Hourly Data Report for June 30, 2019

FISHER BRANCH (AUT)
MANITOBA
Current Station Operator: ECCC - MSC

51°05'00.100" N
97°33'16.200" W
253.00 m
50309J6
71442
WSZ

Download Data

Hourly Data (June 2019)
Hourly Data Report for June 30, 2019
TIME
LST
Temp Definition
°C
Dew Point Definition
°C
Rel Hum Definition
%
Precip. Amount Definition
mm

Wind Dir Definition
10's deg

Wind Spd Definition
km/h
Visibility Definition
km
Stn Press Definition
kPa
Hmdx Definition


Wind Chill Definition


Weather Definition


00:00 19.4 18.3 93 1.6 36 8   98.26     LegendNANA
01:00 19.3 18.4 94 0.0 10 6   98.19     LegendNANA
02:00 19.3 18.4 95 0.0 18 5   98.18     LegendNANA
03:00 18.7 17.7 94 0.0 18 9   98.18     LegendNANA
04:00 19.2 17.8 92 0.0 21 8   98.20     LegendNANA
05:00 18.6 17.4 93 0.0 26 8   98.20     LegendNANA
06:00 19.7 17.5 87 0.0 25 9   98.19     LegendNANA
07:00 21.1 17.3 79 0.0 25 11   98.23 27   LegendNANA
08:00 22.7 16.8 69 0.0 23 11   98.24 28   LegendNANA
09:00 24.5 14.7 54 0.0 21 14   98.22 28   LegendNANA
10:00 26.1 11.7 41 0.0 23 17   98.18 28   LegendNANA
11:00 27.7 10.8 35 0.0 22 18   98.13 29   LegendNANA
12:00 28.2 9.4 31 0.0 25 28   98.11 29   LegendNANA
13:00 28.0 5.3 24 0.0 28 28   98.09 27   LegendNANA
14:00 28.1 7.5 27 0.0 28 26   98.10 28   LegendNANA
15:00 28.3 8.6 29 0.0 26 24   98.10 29   LegendNANA
16:00 27.3 9.6 33 0.0 27 24   98.10 28   LegendNANA
17:00 26.7 9.3 33 0.0 27 22   98.12 28   LegendNANA
18:00 25.8 9.0 34 0.0 27 25   98.13 27   LegendNANA
19:00 24.9 9.1 37 0.0 28 22   98.13 26   LegendNANA
20:00 23.6 9.6 41 0.0 27 16   98.14 25   LegendNANA
21:00 21.3 10.7 51 0.0 26 12   98.20     LegendNANA
22:00 20.9 10.9 53 0.0 26 14   98.24     LegendNANA
23:00 19.7 11.3 58 0.0 26 12   98.24     LegendNANA

Notes on Data Quality.

Legend

  • E = Estimated
  • M = Missing
  • NA = Not Available*
  • [empty] = Indicates an unobserved value
Date modified: